Effective Sunday, March 17, 2024, the National Weather Service National Data Buoy Center will discontinue its Dial-A-Buoy Interactive Voice Response system. For more information, see Service Change Notice 24-06 (PDF).

Station 46072 (LLNR 27510) - CENTRAL ALEUTIANS 230 NM SW Dutch Harbor Image indicating link to RSS feed of recent meteorological observations for station 46072


Conditions at 46072 as of
(1:10 pm HAST)
2310 GMT on 03/01/2024:
     

Click on the graph icon in the table below to see a time series plot of the last five days of that observation.

5-day plot - Wind Direction Wind Direction (WDIR): S ( 170 deg true )
5-day plot - Wind Speed Wind Speed (WSPD): 13.6 kts
5-day plot - Wind Gust Wind Gust (GST): 17.5 kts
5-day plot - Atmospheric Pressure Atmospheric Pressure (PRES):29.49 in
5-day plot - Water Temperature Water Temperature (WTMP): 39.6 °F
5-day plot - Wind Speed at 10 Meters Wind Speed at 10 meters (WSPD10M): 15.5 kts
5-day plot - Wind Speed at 20 Meters Wind Speed at 20 meters (WSPD20M): 15.5 kts
5-day plot -  Wind Speed, Wind Gust and Atmospheric Pressure Combined plot of Wind Speed, Gust, and Air Pressure
Supplemental Measurements
Highest 1-minute Wind Speed
Time (HAST)5-day plot - 1-Minute Wind Speed WSPD 5-day plot - 1-Minute Wind Direction WDIR
1:02 pm 15.5 kts-
Previous observations
TIME
(HAST)
5-day plot - Wind Direction
WDIR
 
5-day plot - Wind Speed
WSPD
kts
5-day plot - Wind Gust
GST
kts
5-day plot - Wave Height
WVHT
ft
5-day plot - Dominant Wave Period
DPD
sec
5-day plot - Average Wave Period
APD
sec
5-day plot - Mean Wave Direction
MWD
 
5-day plot - Atmospheric Pressure
PRES
in
5-day plot - Pressure Tendency
PTDY
in
5-day plot - Air Temperature
ATMP
°F
5-day plot - Water Temperature
WTMP
°F
5-day plot - Dew Point
DEWP
°F
5-day plot - Salinity
SAL
psu
5-day plot - Visibility
VIS
nmi
5-day plot - Tide (above MLLW)
TIDE
ft
2024-03-01 01:00 pmSSE 13.6 17.5----29.49-0.04- 39.6----
2024-03-01 12:50 pmSSE 13.6 17.5 10.5 147.7WSW29.49-- 39.4----
2024-03-01 12:40 pmSSE 13.6 15.5----29.49-- 39.4----
2024-03-01 12:30 pmSSE 13.6 17.5----29.49-- 39.4----
2024-03-01 12:20 pmSSE 13.6 15.5 10.8 107.6 SW29.50-- 39.4----
2024-03-01 12:10 pmSSE 11.7 15.5 10.8-7.6 SW29.51-- 39.4----
2024-03-01 12:00 pmSSE 11.7 15.5----29.51-0.04- 39.4----
2024-03-01 11:50 amSSE 11.7 15.5 11.2 147.8 W29.51-- 39.4----
2024-03-01 11:40 amSSE 13.6 17.5 11.2-7.8 W29.51-- 39.4----
2024-03-01 11:30 am S 13.6 17.5----29.52-- 39.4----
2024-03-01 11:20 am S 13.6 17.5 10.8 157.8WSW29.52-- 39.4----
2024-03-01 11:10 am S 13.6 17.5 10.8-7.8WSW29.52-- 39.4----
2024-03-01 11:00 am S 11.7 15.5----29.52-0.04- 39.4----
2024-03-01 10:50 am S 13.6 17.5 10.5 157.5WSW29.52-- 39.4----
2024-03-01 10:40 am S 13.6 17.5----29.53-- 39.4----
2024-03-01 10:30 am S 15.5 19.4----29.53-- 39.4----
2024-03-01 10:20 am S 15.5 17.5 10.5 147.5WSW29.53-- 39.4----
2024-03-01 10:10 am S 13.6 19.4 10.5-7.5WSW29.53-- 39.4----
2024-03-01 10:00 am S 15.5 17.5----29.53-0.04------
2024-03-01 09:50 am S 15.5 19.4 10.2 157.4WSW29.54-- 39.4----
2024-03-01 09:40 am S 15.5 21.4----29.54-- 39.4----
2024-03-01 09:30 am S 15.5 19.4----29.54-- 39.4----
2024-03-01 09:20 amSSE 15.5 19.4 10.2 157.7WSW29.54-- 39.4----
2024-03-01 09:10 amSSE 15.5 19.4 10.2-7.7WSW29.54-- 39.4----
2024-03-01 09:00 amSSE 15.5 19.4----29.54-0.05- 39.4----
2024-03-01 08:50 amSSE 15.5 19.4 10.2 147.0WSW29.54-- 39.4----
2024-03-01 08:40 amSSE 15.5 19.4 10.2-7.0WSW29.54-- 39.4----
2024-03-01 08:30 amSSE 15.5 19.4----29.54-- 39.4----
2024-03-01 08:20 amSSE 15.5 19.4 10.5 157.4WSW29.55-- 39.4----
2024-03-01 08:10 amSSE 15.5 19.4 10.5-7.4WSW29.55-- 39.4----
2024-03-01 08:00 amSSE 15.5 19.4----29.55-0.06- 39.4----
2024-03-01 07:50 amSSE 15.5 19.4 10.5 157.4WSW29.55-- 39.2----
2024-03-01 07:40 am S 15.5 21.4----29.56-- 39.2----
2024-03-01 07:30 am S 17.5 21.4----29.56-- 39.2----
2024-03-01 07:20 am S 17.5 21.4 10.2 157.3WSW29.57-- 39.2----
2024-03-01 07:10 amSSE 17.5 21.4 10.2-7.3WSW29.57-- 39.2----
2024-03-01 07:00 amSSE 17.5 21.4----29.57-0.06- 39.2----
2024-03-01 06:50 am S 15.5 19.4 9.8 97.1SSW29.57-- 39.4----
2024-03-01 06:40 amSSE 15.5 19.4----29.57-- 39.4----
2024-03-01 06:30 amSSE 15.5 19.4----29.57-- 39.4----
2024-03-01 06:20 amSSE 15.5 19.4 9.2 157.1WSW29.58-- 39.4----
2024-03-01 06:10 amSSE 15.5 19.4 9.2-7.1WSW29.59-- 39.4----
2024-03-01 06:00 amSSE 15.5 19.4----29.59-0.07- 39.4----
2024-03-01 05:50 amSSE 15.5 19.4 9.8 157.1WSW29.59-- 39.4----
2024-03-01 05:40 am S 15.5 19.4 9.8-7.1WSW29.60-- 39.4----
2024-03-01 05:30 am S 15.5 19.4----29.60-- 39.4----
2024-03-01 05:20 am S 15.5 21.4 9.8 157.1 SW29.60-- 39.4----
2024-03-01 05:10 am S 15.5 19.4 9.8-7.1 SW29.61-- 39.4----
2024-03-01 05:00 am S 17.5 21.4----29.61-0.06- 39.4----
2024-03-01 04:50 am S 15.5 19.4 9.8 157.0WSW29.61-- 39.4----
2024-03-01 04:40 am S 17.5 21.4----29.62-- 39.4----
2024-03-01 04:30 am S 17.5 19.4----29.62-- 39.4----
2024-03-01 04:20 am S 17.5 21.4 10.2 157.0WSW29.63-- 39.4----
2024-03-01 04:10 am S 17.5 23.3 10.2-7.0WSW29.63-- 39.4----
2024-03-01 04:00 am S 17.5 23.3----29.63-0.06- 39.4----
2024-03-01 03:50 am S 17.5 23.3 10.2 157.1WSW29.64-- 39.4----
2024-03-01 03:40 am S 17.5 21.4----29.64-- 39.4----
2024-03-01 03:30 am S 17.5 21.4----29.65-- 39.4----
2024-03-01 03:20 am S 17.5 21.4 9.8 157.0WSW29.66-- 39.6----
2024-03-01 03:10 am S 19.4 23.3 9.8-7.0WSW29.66-- 39.6----
2024-03-01 03:00 am S 19.4 23.3----29.66-0.05- 39.6----
2024-03-01 02:50 am S 19.4 23.3 10.5 157.1WSW29.66-- 39.6----
2024-03-01 02:40 am S 19.4 23.3----29.67-- 39.6----
2024-03-01 02:30 am S 19.4 23.3----29.67-- 39.6----
2024-03-01 02:20 am S 19.4 23.3 10.2 156.8WSW29.67-- 39.6----
2024-03-01 02:10 am S 19.4 23.3----29.67-- 39.6----
2024-03-01 02:00 am S 17.5 21.4 10.2-6.8WSW29.68-0.05- 39.6----
2024-03-01 01:50 am S 17.5 23.3 9.8 156.7 SW29.68-- 39.6----
2024-03-01 01:40 am S 19.4 23.3 9.8-6.7 SW29.68-- 39.6----
2024-03-01 01:30 am S 19.4 23.3----29.68-- 39.6----
2024-03-01 01:20 am S 17.5 23.3 10.2 156.6 SW29.69-- 39.6----
2024-03-01 01:10 amSSE 17.5 23.3----29.69-- 39.6----
2024-03-01 01:00 amSSE 19.4 23.3----29.69-0.06- 39.6----
2024-03-01 12:50 amSSE 19.4 25.3 9.5 156.5 SW29.70-- 39.6----
2024-03-01 12:40 amSSE 17.5 21.4----29.70-- 39.4----
2024-03-01 12:30 amSSE 17.5 21.4----29.70-- 39.4----
2024-03-01 12:20 amSSE 17.5 21.4 9.2 167.0 SW29.70-- 39.4----
2024-03-01 12:10 amSSE 17.5 21.4 9.2-7.0 SW29.70-- 39.4----
2024-03-01 12:00 amSSE 17.5 21.4----29.71-0.06- 39.4----
2024-02-29 11:50 pmSSE 17.5 21.4 8.9 156.8WSW29.71-- 39.4----
2024-02-29 11:40 pmSSE 17.5 21.4 8.9-6.8WSW29.72-- 39.4----
2024-02-29 11:30 pmSSE 17.5 21.4----29.72-- 39.4----
2024-02-29 11:20 pmSSE 17.5 19.4 8.9 166.9WSW29.72-- 39.4----
2024-02-29 11:10 pmSSE 15.5 19.4 8.9-6.9WSW29.72-- 39.4----
2024-02-29 11:00 pmSSE 15.5 19.4----29.73-0.06- 39.4----
2024-02-29 10:50 pmSSE 15.5 19.4 9.2 166.9WSW29.73-- 39.4----
2024-02-29 10:40 pmSSE 15.5 19.4----29.73-- 39.4----
2024-02-29 10:30 pmSSE 15.5 19.4----29.74-- 39.4----
2024-02-29 10:20 pmSSE 15.5 19.4 7.9 166.6WSW29.74-- 39.4----
2024-02-29 10:10 pmSSE 15.5 19.4 7.9-6.6WSW29.75-- 39.4----
2024-02-29 10:00 pmSSE 15.5 19.4----29.75-0.05- 39.4----
2024-02-29 09:50 pmSSE 15.5 19.4 8.5 166.6 SW29.75-- 39.4----
2024-02-29 09:40 pmSSE 15.5 19.4 8.5-6.6 SW29.75-- 39.4----
2024-02-29 09:30 pmSSE 13.6 17.5----29.76-- 39.4----
2024-02-29 09:20 pmSSE 15.5 17.5 8.5 86.3 S29.76-- 39.4----
2024-02-29 09:10 pmSSE 15.5 19.4 8.5-6.3 S29.77-- 39.4----
2024-02-29 09:00 pmSSE 15.5 19.4----29.77-0.03- 39.4----
2024-02-29 08:50 pmSSE 15.5 17.5 8.9 86.6 S29.78-- 39.4----
2024-02-29 08:40 pmSSE 13.6 17.5----29.78-- 39.4----
2024-02-29 08:30 pmSSE 13.6 17.5----29.78-- 39.4----
2024-02-29 08:20 pmSSE 13.6 17.5 8.5 76.6 S29.78-- 39.4----
2024-02-29 08:10 pmSSE 13.6 19.4 8.5-6.6 S29.79-- 39.4----
2024-02-29 08:00 pmSSE 13.6 19.4----29.79-0.03- 39.4----
2024-02-29 07:50 pmSSE 15.5 17.5 8.2 86.4SSW29.79-- 39.4----
2024-02-29 07:40 pmSSE 13.6 19.4----29.79-- 39.4----
2024-02-29 07:30 pmSSE 13.6 17.5----29.79-- 39.4----
2024-02-29 07:20 pmSSE 13.6 17.5 8.5 86.4 S29.79-- 39.4----
2024-02-29 07:10 pmSSE 15.5 19.4 8.5-6.4 S29.80-- 39.4----
2024-02-29 07:00 pmSSE 15.5 21.4----29.80-0.05- 39.4----
2024-02-29 06:50 pmSSE 13.6 17.5 7.9 86.3SSE29.80-- 39.6----
2024-02-29 06:40 pmSSE 15.5 19.4 7.9-6.3SSE29.80-- 39.6----
2024-02-29 06:30 pmSSE 15.5 19.4----29.80-- 39.6----
2024-02-29 06:20 pmSSE 15.5 21.4 8.2 76.3SSE29.80-- 39.6----
2024-02-29 06:10 pmSSE 15.5 19.4 8.2-6.3SSE29.80-- 39.6----
2024-02-29 06:00 pmSSE 15.5 17.5----29.80-0.07- 39.6----
2024-02-29 05:50 pmSSE 15.5 19.4 8.5 76.3 SE29.80-- 39.6----
2024-02-29 05:40 pmSSE 13.6 17.5 8.5-6.3 SE29.80-------
2024-02-29 05:30 pmSSE 13.6 19.4----29.81-- 39.4----
2024-02-29 05:20 pm SE 13.6 19.4 7.9 86.2 S29.81-- 39.4----
2024-02-29 05:10 pm SE 13.6 17.5 7.9-6.2 S29.82-- 39.4----
2024-02-29 05:00 pm SE 13.6 17.5----29.82-0.07- 39.4----
2024-02-29 04:50 pm SE 13.6 17.5 8.9 76.3SSE29.83-- 39.4----
2024-02-29 04:40 pm SE 13.6 15.5----29.83-- 39.4----
2024-02-29 04:30 pm SE 13.6 15.5----29.83-- 39.4----
2024-02-29 04:20 pm SE 11.7 15.5 8.5 86.1SSE29.84-- 39.4----
2024-02-29 04:10 pm SE 13.6 15.5 8.5-6.1SSE29.84-- 39.4----
2024-02-29 04:00 pm SE 13.6 17.5----29.85-0.08- 39.4----
2024-02-29 03:50 pm SE 13.6 17.5 8.2 86.1 S29.85-- 39.4----
2024-02-29 03:40 pm SE 13.6 17.5----29.86-- 39.4----
2024-02-29 03:30 pm SE 13.6 17.5 8.2-6.1 S29.86-- 39.4----
2024-02-29 03:20 pm SE 13.6 17.5 8.5 76.0SSE29.87-- 39.4----
2024-02-29 03:10 pm SE 13.6 17.5 8.5-6.0SSE29.87-- 39.4----
2024-02-29 03:00 pm SE 15.5 19.4----29.88-0.07- 39.4----
2024-02-29 02:50 pm SE 15.5 19.4 9.2 86.2 S29.88-- 39.4----
2024-02-29 02:40 pm SE 15.5 19.4 9.2-6.2 S29.88-- 39.4----
2024-02-29 02:30 pm SE 15.5 19.4----29.88-- 39.4----
2024-02-29 02:20 pm SE 15.5 19.4 8.5 76.0 S29.89-- 39.4----
2024-02-29 02:10 pm SE 17.5 21.4 8.5-6.0 S29.89-- 39.4----
2024-02-29 02:00 pm SE 17.5 23.3----29.90-0.07- 39.4----
2024-02-29 01:50 pm SE 17.5 23.3 9.8 76.0SSE29.90-- 39.4----
2024-02-29 01:40 pm SE 19.4 23.3----29.91-- 39.4----
2024-02-29 01:00 pm SE 19.4 25.3 9.2-5.9 S29.93-0.06- 39.4----
2024-02-29 12:50 pm SE 21.4 25.3 9.8 86.1 S29.93-- 39.4----

Detailed Wave Summary
for 46072 as of (12:40 pm HAST)
2240 GMT on 03/01/2024:

These wave data are displayed in rounded times.

     

Click on the graph icon in the table below to see a time series plot of the last five days of that observation.

5-day plot - Significant Wave Height Significant Wave Height (WVHT): 10.5 ft
5-day plot - Swell Height Swell Height (SwH): 9.5 ft
5-day plot - Swell Period Swell Period (SwP): 13.8 sec
5-day plot - Swell Direction Swell Direction (SwD):WSW
5-day plot - Wind Wave Height Wind Wave Height (WWH): 4.6 ft
5-day plot - Wind Wave Period Wind Wave Period (WWP): 6.2 sec
5-day plot - Wind Wave Direction Wind Wave Direction (WWD):SSE
5-day plot - Wave Steepness Wave Steepness (STEEPNESS): SWELL
5-day plot - Average Wave Period Average Wave Period (APD): 7.7 sec
Previous observations
TIME
(HAST)
5-day plot - Wave Height
WVHT
ft
5-day plot - Swell Height
SwH
ft
5-day plot - Swell Period
SwP
sec
5-day plot - Swell Direction
SwD
 
5-day plot - Wind Wave Height
WWH
ft
5-day plot - Wind Wave Period
WWP
sec
5-day plot - Wind Wave Direction
WWD
 
5-day plot - Wave Steepness
STEEPNESS
 
5-day plot - Average Wave Period
APD
sec
2024-03-01 12:10 pm 10.8 9.8 10.0 SW 4.3 5.0 SSE AVERAGE 7.6
2024-03-01 11:40 am 11.2 10.2 13.8 W 4.9 5.3 S SWELL 7.8
2024-03-01 11:10 am 10.8 9.8 14.8WSW 4.6 5.9 SSE SWELL 7.8
2024-03-01 10:40 am 10.5 9.2 14.8WSW 5.2 6.2 SSE SWELL 7.5
2024-03-01 10:10 am 10.5 8.9 13.8WSW 5.9 7.1 SSE SWELL 7.5
2024-03-01 09:40 am 10.2 8.2 14.8WSW 6.2 5.9 SSE SWELL 7.4
2024-03-01 09:10 am 10.2 8.5 14.8WSW 5.9 6.2 SSE SWELL 7.7
2024-03-01 08:40 am 10.2 8.2 13.8WSW 6.2 6.7 SSE SWELL 7.0
2024-03-01 08:10 am 10.5 7.9 14.8WSW 6.6 4.3 S SWELL 7.4
2024-03-01 07:40 am 10.5 8.2 14.8WSW 6.2 7.7 S SWELL 7.4
2024-03-01 07:10 am 10.2 7.2 14.8WSW 7.2 7.1 SSE SWELL 7.3
2024-03-01 06:40 am 9.8 7.5 9.1SSW 6.2 7.7 SSW STEEP 7.1
2024-03-01 06:10 am 9.2 6.9 14.8WSW 5.9 7.1 SSW SWELL 7.1
2024-03-01 05:40 am 9.8 7.2 14.8WSW 6.9 7.7 S SWELL 7.1
2024-03-01 05:10 am 9.8 7.5 14.8 SW 5.9 7.1 S SWELL 7.1
2024-03-01 04:40 am 9.8 6.9 14.8WSW 6.9 7.7 SSW SWELL 7.0
2024-03-01 04:10 am 10.2 6.9 14.8WSW 7.5 8.3 SSW AVERAGE 7.0
2024-03-01 03:40 am 10.2 7.9 14.8WSW 6.6 7.7 SSW SWELL 7.1
2024-03-01 03:10 am 9.8 7.5 14.8WSW 6.6 7.7 S SWELL 7.0
2024-03-01 02:40 am 10.5 6.6 14.8WSW 8.2 7.1 SSE AVERAGE 7.1
2024-03-01 02:10 am 10.2 6.6 14.8WSW 7.5 8.3 SSW AVERAGE 6.8
2024-03-01 01:40 am 9.8 6.6 14.8 SW 7.2 7.7 S AVERAGE 6.7
2024-03-01 01:10 am 10.2 5.9 14.8 SW 8.2 8.3 SSW AVERAGE 6.6
2024-03-01 12:40 am 9.5 5.6 14.8 SW 7.9 6.2 SSE AVERAGE 6.5
2024-03-01 12:10 am 9.2 6.2 16.0 SW 6.6 7.1 SSE AVERAGE 7.0
2024-02-29 11:40 pm 8.9 6.2 14.8WSW 6.6 8.3 SSW AVERAGE 6.8
2024-02-29 11:10 pm 8.9 6.2 16.0WSW 6.2 7.1 S SWELL 6.9
2024-02-29 10:40 pm 9.2 6.6 16.0WSW 6.6 6.7 SE SWELL 6.9
2024-02-29 10:10 pm 7.9 5.9 16.0WSW 5.2 7.1 ESE SWELL 6.6
2024-02-29 09:40 pm 8.5 5.9 16.0 SW 5.9 6.7 SE SWELL 6.6
2024-02-29 09:10 pm 8.5 5.9 8.3 S 5.9 5.3 SE STEEP 6.3
2024-02-29 08:40 pm 8.9 6.6 7.7 S 5.9 6.2 ESE STEEP 6.6
2024-02-29 08:10 pm 8.5 6.9 7.1 S 5.2 5.9 SSEVERY_STEEP 6.6
2024-02-29 07:40 pm 8.2 5.6 8.3SSW 5.9 7.1 SE STEEP 6.4
2024-02-29 07:10 pm 8.5 5.9 8.3 S 5.9 5.9 SSE STEEP 6.4
2024-02-29 06:40 pm 7.9 5.2 7.7SSE 5.9 6.7 SSE STEEP 6.3
2024-02-29 06:10 pm 8.2 5.2 17.4 SW 6.2 7.1 SSE STEEP 6.3
2024-02-29 05:40 pm 8.5 5.6 17.4SSW 6.6 7.1 SEVERY_STEEP 6.3
2024-02-29 05:10 pm 7.9 6.2 7.7 S 5.2 5.0 SSE STEEP 6.2
2024-02-29 04:40 pm 8.9 7.5 7.1SSE 4.9 5.6 SSEVERY_STEEP 6.3
2024-02-29 04:10 pm 8.5 6.9 7.7SSE 5.2 6.2 SSE STEEP 6.1
2024-02-29 03:40 pm 8.2 6.2 7.7 S 5.2 4.3 SE STEEP 6.1
2024-02-29 03:10 pm 8.5 6.2 7.1SSE 5.6 5.6 SSEVERY_STEEP 6.0
2024-02-29 02:40 pm 9.2 4.9 17.4WSW 7.5 7.7 S STEEP 6.2
2024-02-29 02:10 pm 8.5 3.3 17.4WSW 7.9 7.1 SVERY_STEEP 6.0
2024-02-29 01:40 pm 9.8 2.3 17.4WSW 9.5 6.7 SSEVERY_STEEP 6.0
2024-02-29 01:10 pm 9.2 2.0 17.4 SW 8.9 7.1 SVERY_STEEP 5.9

Plot of wave energy versus frequency (and period)